[[{"header":{"parameterUnit":"m.s-1","parameterCategory":1,"la1":30.2992,"la2":30.254,"lo1":-89.0895,"lo2":-89.0443,"dy":0.0025,"dx":0.0025,"nx":19,"ny":19,"refTime":"2026-03-17T21:00:00:Z","depth":0,"parameterNumber":2,"parameterNumberName":"U-component_of_WINDS"},"data":[0,0,0,-2.4451,-2.4453,-2.4558,-2.4559,-2.4699,-2.4701,0,0,0,0,0,0,0,0,0,0,0,-2.4424,-2.4426,-2.445,-2.4453,-2.4558,-2.4559,-2.4699,-2.4701,0,0,0,0,0,0,0,0,0,0,0,-2.4424,-2.4425,-2.4427,-2.4454,-2.4558,-2.4559,-2.4699,-2.4617,0,0,0,0,0,0,0,0,0,0,-2.4514,-2.4495,-2.4425,-2.4427,-2.4454,-2.4558,-2.4559,-2.4613,-2.4622,-2.4655,0,-2.4686,0,-2.4696,-2.4711,-2.4711,0,0,0,-2.4449,-2.4487,-2.4511,-2.4427,-2.4455,-2.4558,-2.451,-2.4618,-2.4628,-2.4667,-2.4688,-2.4693,-2.4698,-2.4712,-2.4712,-2.4915,-2.4916,0,0,-2.4443,-2.4446,-2.4504,-2.4518,-2.4503,-2.4506,-2.4513,-2.4624,-2.4647,-2.4689,-2.4696,-2.47,-2.4713,-2.4714,-2.4914,-2.4915,0,0,0,-2.4429,-2.4442,-2.4463,-2.4512,-2.4531,-2.451,-2.4517,-2.4642,-2.4649,-2.4698,-2.4702,-2.4713,-2.4715,-2.4913,-2.4914,-2.4972,0,0,0,-2.4426,-2.4434,-2.4461,-2.4463,-2.4529,-2.4588,-2.4533,-2.4641,-2.4653,-2.4701,-2.4713,-2.4717,-2.4911,-2.4914,-2.4968,-2.4999,0,0,0,-2.4416,-2.4433,-2.445,-2.4463,-2.4509,-2.4586,-2.4599,-2.4644,-2.4656,-2.4711,-2.4717,-2.4911,-2.4913,-2.4964,-2.4993,-2.5052,0,0,0,-2.4406,-2.45,-2.4451,-2.4557,-2.4508,-2.4622,-2.4598,-2.4683,-2.4737,-2.4714,-2.4912,-2.4914,-2.4963,-2.4989,-2.5048,-2.5102,-2.5125,0,0,-2.4526,-2.4515,-2.4577,-2.4536,-2.4659,-2.4605,-2.4737,-2.4784,-2.4787,-2.4872,-2.4877,-2.4969,-2.4992,-2.5051,-2.5254,-2.5272,0,0,0,-2.4616,-2.4661,-2.4693,-2.4745,-2.4783,-2.4818,-2.4844,-2.4861,-2.4933,-2.4831,-2.5007,-2.5021,-2.5055,-2.5081,-2.5096,-2.5125,-2.4926,-2.4926,-2.4926,-2.479,-2.4788,-2.4891,-2.4901,-2.4951,-2.4977,-2.5017,-2.5045,-2.5029,-2.507,-2.5095,-2.5219,-2.5249,-2.526,-2.529,-2.5124,-2.5124,-2.5125,-2.5125,-2.4965,-2.5027,-2.5003,-2.5094,-2.5091,-2.5167,-2.5195,-2.518,-2.525,-2.52,-2.523,-2.5175,-2.528,-2.5306,-2.5129,-2.5128,-2.5128,-2.5127,-2.5127,-2.5078,-2.5107,-2.5126,-2.52,-2.5256,-2.5263,-2.533,-2.5326,-2.5321,-2.5351,-2.5376,-2.5375,-2.5373,-2.5364,-2.5364,-2.5364,-2.5365,-2.5365,-2.5365,-2.5187,-2.5207,-2.5264,-2.5312,-2.5343,-2.5384,-2.541,-2.544,-2.5473,-2.5464,-2.5464,-2.5443,-2.5292,-2.5253,-2.5372,-2.5371,-2.537,-2.5369,-2.5369,-2.5364,-2.5323,-2.5412,-2.5444,-2.5497,-2.5553,-2.5545,-2.5608,-2.5632,-2.5665,-2.5638,-2.5527,-2.5515,-2.5502,-2.547,-2.5638,-2.5638,-2.5638,-2.5639,-2.5459,-2.5452,-2.5541,-2.5591,-2.564,-2.5642,-2.5741,-2.5761,-2.5776,-2.579,-2.5765,-2.5723,-2.571,-2.5705,-2.5688,-2.5658,-2.5871,-2.5871,-2.5871,-2.5567,-2.5564,-2.565,-2.5664,-2.5705,-2.574,-2.5833,-2.5891,-2.5898,-2.5881,-2.5801,-2.5791,-2.5722,-2.57,-2.5681,-2.5655,-2.5599,0,0]},{"header":{"parameterUnit":"m.s-1","parameterCategory":1,"la1":30.2992,"la2":30.254,"lo1":-89.0895,"lo2":-89.0443,"dy":0.0025,"dx":0.0025,"nx":19,"ny":19,"refTime":"2026-03-17T21:00:00:Z","depth":0,"parameterNumber":3,"parameterNumberName":"V-component_of_WINDS"},"data":[0,0,0,-2.2739,-2.2741,-2.2818,-2.2818,-2.2919,-2.292,0,0,0,0,0,0,0,0,0,0,0,-2.2719,-2.2719,-2.2739,-2.2741,-2.2817,-2.2818,-2.2919,-2.292,0,0,0,0,0,0,0,0,0,0,0,-2.2718,-2.2719,-2.272,-2.2741,-2.2817,-2.2818,-2.2919,-2.286,0,0,0,0,0,0,0,0,0,0,-2.2784,-2.2768,-2.2719,-2.272,-2.2742,-2.2817,-2.2818,-2.2857,-2.2863,-2.2886,0,-2.2907,0,-2.2915,-2.2927,-2.2928,0,0,0,-2.2739,-2.2763,-2.2781,-2.272,-2.2742,-2.2817,-2.2782,-2.286,-2.2868,-2.2895,-2.2909,-2.2912,-2.2917,-2.2928,-2.2928,-2.3066,-2.3067,0,0,-2.2734,-2.2734,-2.2776,-2.2786,-2.2775,-2.278,-2.2785,-2.2865,-2.288,-2.2909,-2.2915,-2.2919,-2.2929,-2.2929,-2.3065,-2.3066,0,0,0,-2.2724,-2.2731,-2.2747,-2.2782,-2.2796,-2.2782,-2.2788,-2.2876,-2.2882,-2.2916,-2.292,-2.2929,-2.2931,-2.3065,-2.3066,-2.3101,0,0,0,-2.2721,-2.2725,-2.2746,-2.2746,-2.2795,-2.2837,-2.2797,-2.2876,-2.2885,-2.2919,-2.2929,-2.2932,-2.3064,-2.3065,-2.3098,-2.3117,0,0,0,-2.2713,-2.2724,-2.2736,-2.2746,-2.2779,-2.2836,-2.2846,-2.2878,-2.2888,-2.2928,-2.2932,-2.3063,-2.3065,-2.3096,-2.3113,-2.3152,0,0,0,-2.2704,-2.2766,-2.2736,-2.2808,-2.2778,-2.2857,-2.2845,-2.2904,-2.2943,-2.293,-2.3064,-2.3066,-2.3095,-2.3111,-2.315,-2.3184,-2.3199,0,0,-2.2782,-2.2776,-2.2818,-2.2793,-2.2877,-2.2846,-2.2935,-2.2971,-2.2975,-2.3035,-2.3039,-2.3099,-2.3113,-2.3152,-2.3283,-2.3295,0,0,0,-2.2843,-2.2873,-2.2895,-2.2932,-2.296,-2.2986,-2.3008,-2.3022,-2.3072,-2.3006,-2.3124,-2.3133,-2.3155,-2.3172,-2.3182,-2.3201,-2.3074,-2.3073,-2.3073,-2.2952,-2.2954,-2.3024,-2.3035,-2.307,-2.3092,-2.3121,-2.3142,-2.3134,-2.3162,-2.3179,-2.3259,-2.3278,-2.3286,-2.3305,-2.3199,-2.3199,-2.3199,-2.3199,-2.3067,-2.3109,-2.3097,-2.3159,-2.316,-2.3213,-2.3236,-2.3229,-2.3277,-2.3246,-2.3266,-2.3231,-2.3298,-2.3316,-2.3202,-2.3201,-2.3201,-2.3201,-2.32,-2.3138,-2.3159,-2.3173,-2.3225,-2.3265,-2.3274,-2.3321,-2.3321,-2.3321,-2.3341,-2.3359,-2.3358,-2.3357,-2.335,-2.335,-2.3351,-2.3351,-2.3351,-2.3351,-2.3206,-2.3221,-2.3261,-2.3296,-2.3319,-2.3349,-2.3371,-2.3393,-2.3417,-2.3414,-2.3414,-2.3402,-2.3305,-2.328,-2.3355,-2.3355,-2.3354,-2.3354,-2.3353,-2.3319,-2.3293,-2.3354,-2.3377,-2.3418,-2.3456,-2.3456,-2.3501,-2.3519,-2.3542,-2.3527,-2.3455,-2.3448,-2.344,-2.3419,-2.3527,-2.3527,-2.3527,-2.3527,-2.3378,-2.3375,-2.3437,-2.3473,-2.3508,-2.3514,-2.3581,-2.3599,-2.3613,-2.3624,-2.3609,-2.3581,-2.3574,-2.3571,-2.3561,-2.3541,-2.3677,-2.3677,-2.3677,-2.3447,-2.3447,-2.3505,-2.3519,-2.355,-2.3577,-2.364,-2.3682,-2.3693,-2.3683,-2.3633,-2.3626,-2.3582,-2.3568,-2.3557,-2.354,-2.3504,0,0]}]]